#timestamp,LO_Frequency,Hit 
1499684415.3,286046994.8,N
1499684435.1,286046993.8,N
1499684455.9,286046988.6,N
1499684475.7,286046992.7,N
1499684495.5,286046990.2,N
1499684515.4,286046992.2,N
1499684535.2,286046994.4,N
1499684555.1,286046994.7,N
1499684556.0,286046994.7,N
1499684575.8,286046992.1,N
1499684595.6,286046994.5,N
1499684615.5,286046990.7,N
1499684635.3,286046990.7,N
1499684655.1,286046990.6,N
1499684675.9,286046994.6,N
1499684695.7,286046994.3,N
1499684715.6,286046994.3,N
1499684735.4,286046994.8,N
1499684755.2,286046994.2,N
1499684775.1,286046994.4,N
1499684776.0,286046994.4,N
1499684795.8,286046994.3,N
1499684815.6,286046992.5,N
1499684835.5,286046994.4,N
1499684855.3,286046992.0,N
1499684875.2,286046992.3,N
1499684895.9,286046991.8,N
1499684915.7,286046992.9,N
1499684935.6,286046994.7,N
1499684955.4,286046996.2,N
1499684975.2,286046993.4,N
1499684995.1,286046995.9,N
1499684996.0,286046995.9,N
1499685015.8,286046995.1,N
1499685035.7,286046996.0,N
1499685055.5,286046993.4,N
1499685075.3,286046992.1,N
1499685095.2,286046991.7,N
1499685115.0,286046993.3,N
1499685115.9,286046993.3,N
1499685135.7,286046994.8,N
1499685155.6,286046994.4,N
1499685175.4,286046992.9,N
1499685195.3,286046992.5,N
1499685215.1,286046990.5,N
1499685216.0,286046990.5,N
1499685235.8,286046994.7,N
1499685255.7,286046994.0,N
1499685275.5,286046995.5,N
1499685295.3,286046998.0,N
1499685315.2,286046997.1,N
1499685335.0,286046997.6,N
1499685335.9,286046997.6,N
1499685355.8,286046997.3,N
1499685375.6,286046999.3,N
1499685395.4,286046999.4,N
1499685415.3,286046999.1,N
1499685435.1,286046996.6,N
1499685455.9,286046999.2,N
1499685475.7,286046996.6,N
1499685495.5,286046995.7,N
1499685515.4,286046999.2,N
1499685535.2,286046997.0,N
1499685555.0,286046995.5,N
1499685556.0,286046995.5,N
1499685575.8,286046995.9,N
1499685595.6,286046995.7,N
1499685615.5,286046995.4,N
1499685635.3,286046995.3,N
1499685655.1,286046997.0,N
1499685675.9,286046998.9,N
1499685695.7,286047000.7,N
1499685715.6,286047000.3,N
1499685735.4,286047001.1,N
1499685755.2,286046998.5,N
1499685775.1,286046998.7,N
1499685776.0,286046998.7,N
1499685795.8,286046998.3,N
1499685815.7,286046998.1,N
1499685835.5,286046999.4,N
1499685855.3,286046999.1,N
1499685875.2,286046998.9,N
1499685895.0,286047000.5,N
1499685895.9,286047000.5,N
1499685915.8,286047000.4,N
1499685935.6,286047002.7,N
1499685955.4,286046996.9,N
1499685975.3,286046999.0,N
1499685995.1,286046998.4,N
1499686015.8,286046999.8,N
1499686035.7,286046996.5,N
1499686055.5,286046999.1,N
1499686075.4,286046999.3,N
1499686095.2,286046999.5,N
1499686115.0,286046999.1,N
1499686115.9,286046999.1,N
1499686135.8,286046997.2,N
1499686155.6,286046999.6,N
1499686175.5,286046996.7,N
1499686195.3,286046996.9,N
1499686215.1,286046997.5,N
1499686235.9,286046994.9,N
1499686255.7,286046997.2,N
1499686275.5,286046993.5,N
1499686295.4,286046993.6,N
1499686315.2,286046994.4,N
1499686335.1,286046990.5,N
1499686336.0,286046990.5,N
1499686355.8,286046990.3,N
1499686375.6,286046991.1,N
1499686395.5,286046990.2,N
1499686415.3,286046992.2,N
1499686435.1,286046992.5,N
1499686455.9,286046992.0,N
1499686475.7,286046991.8,N
1499686495.6,286046991.8,N
1499686515.4,286046994.7,N
1499686535.2,286046992.8,N
1499686555.1,286046990.1,N
1499686556.0,286046990.1,N
1499686575.8,286046994.4,N
1499686595.6,286046990.9,N
1499686615.5,286046991.7,N
1499686635.3,286046993.3,N
1499686655.2,286046994.3,N
1499686675.9,286046992.9,N
1499686695.7,286046991.8,N
1499686715.6,286046992.8,N
1499686735.4,286046992.3,N
1499686755.2,286046993.6,N
1499686775.1,286046992.0,N
1499686776.0,286046992.0,N
1499686795.8,286046992.9,N
1499686815.7,286046991.7,N
1499686835.5,286046992.0,N
1499686855.3,286046991.7,N
1499686875.2,286046992.9,N
1499686895.0,286046992.9,N
1499686895.9,286046992.9,N
1499686915.7,286046993.2,N
1499686935.6,286046992.4,N
1499686955.4,286046992.0,N
1499686975.3,286046992.1,N
1499686995.1,286046993.2,N
1499686996.0,286046993.2,N
1499687015.8,286046992.6,N
1499687035.7,286046988.5,N
1499687055.5,286046988.9,N
1499687075.3,286046988.8,N
1499687095.2,286046991.2,N
1499687115.0,286046987.2,N
1499687115.9,286046987.2,N
1499687135.8,286046989.3,N
1499687155.6,286046991.0,N
1499687175.4,286046991.3,N
1499687195.3,286046993.1,N
1499687215.1,286046991.3,N
1499687235.8,286046988.9,N
1499687255.7,286046990.3,N
1499687275.5,286046990.6,N
1499687295.4,286046992.5,N
1499687315.2,286046992.2,N
1499687335.0,286046993.3,N
1499687335.9,286046993.3,N
1499687355.8,286046994.1,N
1499687375.6,286046992.1,N
1499687395.4,286046992.9,N
1499687415.3,286046990.6,N
1499687435.1,286046993.7,N
1499687455.9,286046995.7,N
1499687475.7,286046994.4,N
1499687495.5,286046990.4,N
1499687515.4,286046994.6,N
1499687535.2,286046993.4,N
1499687555.0,286046991.4,N
1499687555.9,286046991.4,N
1499687575.8,286046989.7,N
1499687595.6,286046988.5,N
1499687615.5,286046994.7,N
1499687635.3,286046992.6,N
1499687655.1,286046988.5,N
1499687675.9,286046992.9,N
1499687695.7,286046994.7,N
1499687715.5,286046992.4,N
1499687735.4,286046993.5,N
1499687755.2,286046995.2,N
1499687775.0,286046991.6,N
1499687776.0,286046991.6,N
1499687795.8,286046989.3,N
1499687815.6,286046989.0,N
1499687835.5,286046990.7,N
1499687855.3,286046990.5,N
1499687875.1,286046991.2,N
1499687895.9,286046990.4,N
1499687915.7,286046989.1,N
1499687935.6,286046989.2,N
1499687955.4,286046990.3,N
1499687975.2,286046991.1,N
1499687995.1,286046990.3,N
1499687996.0,286046990.3,N
